Location: Horowhenua
(40.7500°S, 175.3333°E)
Time: 05:43:05
(UTC+00:00)

Resurs 1-4 Rocket - Pass Details

Date: 28 January 2023
Orbit: 800 x 813 km, 98.7° (Epoch: 01 April)

Event Time Altitude Azimuth Distance (km) Brightness Sun altitude
Exits shadow 13:35:25 44° 238° (WSW) 1,136 2.9 -29.2°
Drops below altitude 10° 13:39:27 10° 203° (SSW) 2,435 5.1 -29.0°
Sets 13:41:54 0° 198° (SSW) 3,374 6.1 -28.9°
